Regional Weather Roundup
Issued by NWS

Home | Current Version | Previous Version | Text Only | Print | Product List | Glossary On
Versions: 1 2 3 4 5 6 7 8 9 10 11 12 13 14 15 16 17 18 19 20 21 22 23 24 25 26 27 28 29 30 31 32 33 34 35 36 37 38 39 40 41 42 43 44 45 46 47 48 49 50
000
ASUS42 KFFC 281503
RWRGA
WEATHER ROUNDUP FOR GEORGIA
NATIONAL WEATHER SERVICE PEACHTREE CITY GA
1100 AM EDT THU AUG 28 2014

NOTE: "FAIR" INDICATES FEW OR NO CLOUDS BELOW 12,000 FEET WITH NO
SIGNIFICANT WEATHER AND/OR OBSTRUCTIONS TO VISIBILITY.

* = USE WITH CAUTION. THE STATIONS MARKED WITH AN ASTERISK MAY NOT
REPORT WEATHER SUCH AS PRECIPITATION, FOG, OR THUNDER AND ARE NOT
QUALITY CONTROLLED BY NWS.

THE REMARK "TC" DENOTES TEMPERATURE READING IN DEGREES CELSIUS.

GAZ001>058-281600-
NORTH GEORGIA

CITY           SKY/WX    TMP DP  RH WIND       PRES   REMARKS
ATLANTA        MOSUNNY   83  66  56 VRB3      30.08S
ATHENS         SUNNY     86  59  39 NW5       30.07S
CHAMBLEE       SUNNY     83  64  52 W3        30.08S
PEACHTREE CITY SUNNY     81  66  60 NW3       30.09R
ROME           SUNNY     79  68  69 CALM      30.07S
WEST ATLANTA   SUNNY     82  68  62 CALM      30.08R
GAINESVILLE    SUNNY     82  63  52 NW6       30.11R
CARTERSVILLE   SUNNY     81  65  58 CALM      30.08S


CITY           SKY/WX    TMP DP  RH WIND       PRES   REMARKS
DALTON*        SUNNY     77  68  73 CALM      30.09R
LAWRENCEVILLE* SUNNY     82  61  47 W5        30.08S
MARIETTA       PTSUNNY   83  67  59 SW3       30.09R
KENNESAW*      SUNNY    N/A N/A N/A CALM      30.08R
$$

GAZ059>098-102>109-281600-
CENTRAL GEORGIA

CITY           SKY/WX    TMP DP  RH WIND       PRES   REMARKS
AUGUSTA-BUSH   SUNNY     84  61  45 VRB6      30.05S
AUGUSTA-DANIEL SUNNY     83  60  45 S5        30.07R
COLUMBUS       SUNNY     85  60  42 E3        30.06R
MACON          SUNNY     84  63  49 CALM      30.06S
ROBINS AFB     SUNNY     82  65  55 NE3       30.05S


CITY           SKY/WX    TMP DP  RH WIND       PRES   REMARKS
LAGRANGE*      SUNNY     87  69  55 SE3       30.08S HX  90
SYLVANIA*      SUNNY     84  68  58 W3        30.07S
MILLEDGEVILLE* SUNNY     81  68  65 E3        30.06S
$$

GAZ099>101-110>166-281600-
SOUTH GEORGIA

CITY           SKY/WX    TMP DP  RH WIND       PRES   REMARKS
SAVANNAH       MOSUNNY   85  65  51 VRB5      30.06S
VALDOSTA       SUNNY     83  67  58 VRB3      30.05S
ALMA           SUNNY     83  66  56 VRB3      30.06R
ST SIMONS      PTSUNNY   82  67  60 NE5       30.05S
FT STEWART     SUNNY     84  63  48 VRB1      30.05S
ALBANY         SUNNY     84  63  49 CALM      30.06S
HUNTER AFB     SUNNY     83  68  59 VRB6      30.04S
MOODY AFB      SUNNY     84  67  55 VRB2      30.05S
BRUNSWICK      SUNNY     82  64  54 CALM      30.06S


CITY           SKY/WX    TMP DP  RH WIND       PRES   REMARKS
BAINBRIDGE*    SUNNY     88  70  55 W3        30.04S HX  92
MOULTRIE*      SUNNY     82  66  57 CALM      30.05S
VIDALIA*         N/A     84  64  51 SW7       30.07R
WAYCROSS*      SUNNY     85  68  56 CALM      30.05F
DOUGLAS*       SUNNY     86  63  45 CALM      30.07R
$$


USA.gov is the U.S. government's official web portal to all federal, state and local government web resources and services.